sat.trackr.live / text

‹ back to catalog

STARLINK-34886

NORAD 65683 · 2025-212H

PAYLOAD ACTIVE UNKNOWN

§ Identity

Operator
Country
US
Launch date
2025-09-21
Launch site
AFETR
Launch vehicle
Mass (kg)
RCS (m²)

Purposes: comms

External: N2YO · Heavens-Above · Gunter

§ Orbital elements

Epoch: 2026-05-24T23:06:15.443136Z

Period
94.08 min
Inclination
53.1611°
Eccentricity
0.0000973
Mean motion
15.30650175 rev/d
Perigee alt
473.2 km
Apogee alt
474.5 km
Semi-major
6,852.0 km
B*
7.3949e-3
RAAN
351.2279°
Arg perigee
87.8134°
Mean anomaly
272.2979°
Rev number
3,887

§ Raw data

STARLINK-348861 65683U 25212H   26144.96267874  .00228680  00000+0  73949-2 0  99952 65683  53.1611 351.2279 0000973  87.8134 272.2979 15.30650175 38873

JSON: /api/v1/satellites/65683 · /tle

For live sub-satellite position, see the globe view (requires WebGL).

§ Visibility from observer

Set your observer location to see the next 7 days of passes ≥ 10°. The values pass through the URL so the page stays shareable.

No JS? Fill the form by hand. The geolocation button needs JavaScript.